Temp
16 16 15 15 15 15 15 14 14 15 14 13 13 13 13 12 12 12 12 12 12 12 12 12 12 11 12 12 12 12 12 12 12 11 12 12 12 12 13 13 13 13 13
16 15 15 15 15 14 14 14 14 13 13 13 13 13 13 13 12 12 12 12 12 13 12 12 12 12 12 12 12 12 12 12 12 11 11 12 12 12 13 13 13 13 13
16 15 15 14 14 14 14 14 13 13 13 13 13 14 14 13 13 13 13 13 13 12 12 12 12 12 12 12 12 12 12 12 12 11 11 11 11 11 13 13 13 12 11
16 15 15 14 14 13 13 13 13 13 13 13 13 14 13 13 13 12 13 12 12 12 12 12 12 12 12 12 12 12 12 12 11 11 11 11 11 11 12 12 11 11 11
16 15 14 14 13 13 13 13 13 13 13 14 14 13 13 12 12 12 12 12 13 12 12 12 12 12 13 13 12 12 12 12 11 11 11 11 11 11 11 12 11 11 10
15 15 14 14 14 13 13 13 13 13 13 14 13 13 13 12 13 13 12 12 12 12 11 12 13 13 13 13 13 13 12 11 11 11 11 11 11 11 11 11 11 10 8
15 15 14 14 14 13 13 13 13 13 13 13 13 13 12 13 13 13 12 12 12 13 13 13 13 13 13 13 13 12 11 11 11 12 11 11 10 11 11 10 10 10 9
16 15 15 14 14 13 13 13 13 13 12 13 12 12 12 13 13 12 12 13 12 12 12 12 12 13 13 13 12 11 11 11 11 11 11 10 10 10 10 10 9 10 8
16 15 15 15 14 14 14 13 13 13 13 12 12 12 12 13 12 12 12 12 12 12 11 12 12 12 13 12 10 10 11 10 10 11 10 10 10 10 10 10 9 9 8
16 15 15 15 14 14 14 13 13 13 13 13 12 13 13 12 12 12 11 11 11 11 10 10 11 11 12 11 11 11 10 10 10 10 10 10 9 9 9 9 10 10 8
16 16 15 15 14 14 13 13 12 13 13 12 12 12 13 12 12 12 11 11 11 11 10 10 10 10 10 10 10 10 10 9 10 10 9 9 8 8 9 9 9 9 8
16 16 15 14 15 13 12 12 12 13 12 12 12 11 12 12 12 11 10 11 10 10 10 9 9 9 9 9 9 9 9 9 9 9 9 8 8 8 8 9 9 9 10
16 16 15 14 14 13 13 12 12 12 12 12 13 12 12 11 11 11 10 10 10 10 9 9 9 9 9 9 9 9 9 9 9 9 8 8 8 8 8 9 9 9 10
16 15 15 15 14 13 13 13 13 12 12 13 13 12 11 11 11 11 10 10 10 9 9 9 9 9 9 9 8 9 9 9 9 9 9 9 9 9 9 9 9 9 11
16 15 15 14 15 13 13 13 12 12 12 13 13 14 11 11 11 10 10 10 10 10 10 9 9 9 9 9 9 10 10 10 10 10 10 9 9 10 10 11 11 11 12
16 16 16 16 15 15 14 13 13 13 13 12 12 13 12 12 12 11 10 10 11 11 9 10 10 9 9 10 10 10 10 10 11 11 11 11 12 12 12 11 12 12 12
17 17 16 16 16 16 15 14 13 13 13 13 13 12 12 12 12 11 10 10 10 11 10 10 10 10 10 11 11 11 11 11 11 12 12 12 13 13 12 12 12 12 13
17 17 17 17 17 16 16 15 15 14 13 12 12 12 12 12 12 11 10 10 10 10 10 10 10 11 12 12 12 13 13 12 12 13 13 13 12 13 12 13 13 13 13
17 17 18 18 17 17 16 16 16 15 14 13 12 12 12 11 11 11 11 10 10 10 10 10 11 12 12 12 12 13 13 13 13 13 13 13 12 13 13 13 13 13 13
17 17 17 17 17 17 17 17 16 16 15 15 14 12 13 12 12 12 11 10 10 11 11 11 11 11 12 12 13 13 13 13 12 13 13 13 13 13 13 13 14 14 13
18 17 17 17 17 17 17 17 17 17 16 16 16 14 14 12 12 12 11 12 13 13 13 13 13 13 13 12 13 13 12 13 13 13 13 13 13 13 13 13 14 14 14
17 17 17 18 18 17 17 17 17 17 17 17 16 15 14 14 15 13 13 13 14 14 14 13 14 14 14 13 13 13 13 12 12 13 13 13 13 13 13 13 14 14 14
15 17 17 17 17 17 16 17 17 17 17 17 17 15 15 14 15 16 15 14 14 14 14 14 14 14 14 14 14 13 13 13 13 13 13 13 14 14 14 14 14 14 14
13 14 15 16 17 17 17 16 16 16 16 17 17 16 15 15 15 15 15 15 15 15 14 14 14 14 14 14 14 14 14 14 14 14 14 14 14 14 14 14 14 14 14
12 13 13 12 12 13 13 14 14 14 14 14 15 15 15 15 15 14 14 14 14 14 14 14 14 14 13 13 14 14 14 13 13 13 14 14 14 14 14 14 14 14 14
10 11 10 10 10 11 10 10 10 10 11 11 11 11 11 11 12 12 11 11 11 12 13 13 13 13 12 12 12 12 12 12 12 12 11 12 12 14 14 14 14 14 15
Height
1395 1398 1402 1406 1410 1415 1420 1423 1427 1430 1433 1436 1439 1441 1443 1446 1448 1449 1450 1451 1452 1453 1456 1457 1458 1459 1462 1463 1465 1465 1466 1469 1471 1475 1478 1480 1484 1487 1490 1494 1497 1500 1504
1399 1402 1406 1410 1414 1418 1421 1424 1427 1430 1433 1436 1439 1441 1444 1446 1446 1447 1448 1449 1449 1451 1453 1456 1457 1458 1460 1461 1462 1464 1466 1468 1471 1473 1476 1479 1483 1486 1490 1494 1497 1501 1505
1402 1405 1409 1413 1416 1419 1422 1425 1428 1431 1433 1437 1440 1442 1444 1445 1445 1445 1444 1445 1446 1448 1450 1453 1454 1456 1458 1459 1461 1463 1465 1467 1470 1471 1474 1478 1482 1485 1489 1493 1498 1502 1506
1405 1409 1412 1415 1418 1421 1423 1426 1429 1432 1435 1438 1440 1442 1443 1442 1442 1442 1442 1442 1443 1445 1448 1450 1452 1454 1456 1458 1460 1462 1464 1466 1469 1470 1474 1478 1482 1485 1489 1492 1498 1503 1507
1407 1411 1414 1416 1420 1423 1425 1428 1431 1434 1436 1439 1440 1441 1441 1441 1441 1441 1441 1441 1441 1443 1445 1448 1450 1452 1454 1456 1460 1461 1463 1465 1467 1470 1474 1478 1482 1484 1488 1493 1497 1503 1510
1410 1413 1416 1418 1421 1424 1427 1429 1432 1435 1437 1439 1441 1442 1440 1441 1440 1440 1439 1439 1441 1443 1445 1446 1448 1452 1454 1456 1458 1460 1462 1465 1467 1469 1473 1477 1481 1484 1490 1493 1498 1503 1510
1412 1415 1417 1420 1422 1425 1428 1431 1433 1435 1437 1439 1440 1442 1442 1440 1440 1439 1439 1439 1440 1442 1443 1445 1448 1450 1453 1454 1456 1459 1462 1466 1468 1470 1473 1477 1480 1485 1489 1496 1502 1506 1510
1413 1416 1418 1420 1423 1425 1429 1432 1434 1436 1438 1439 1441 1442 1441 1440 1439 1439 1439 1440 1441 1442 1444 1446 1448 1450 1452 1454 1456 1459 1463 1467 1470 1473 1477 1480 1484 1488 1493 1497 1501 1506 1514
1414 1416 1419 1421 1424 1426 1430 1433 1435 1436 1438 1440 1441 1442 1441 1441 1440 1439 1439 1440 1441 1443 1445 1447 1449 1450 1452 1454 1458 1459 1462 1466 1470 1474 1478 1483 1487 1491 1494 1498 1504 1509 1516
1414 1417 1420 1422 1425 1428 1431 1434 1435 1437 1439 1441 1442 1441 1441 1441 1441 1441 1440 1442 1443 1444 1446 1448 1450 1452 1454 1457 1458 1461 1464 1468 1471 1476 1480 1485 1489 1494 1498 1503 1506 1512 1518
1415 1418 1421 1424 1427 1429 1432 1434 1436 1438 1440 1440 1441 1442 1442 1442 1442 1442 1442 1443 1444 1446 1447 1448 1450 1453 1455 1458 1461 1464 1467 1470 1474 1479 1482 1487 1492 1497 1503 1508 1514 1519 1523
1417 1420 1423 1425 1428 1430 1432 1434 1436 1437 1439 1440 1441 1442 1442 1442 1443 1443 1443 1444 1446 1447 1449 1450 1452 1455 1457 1460 1463 1467 1471 1474 1477 1481 1486 1490 1496 1502 1508 1513 1518 1523 1525
1418 1421 1424 1426 1429 1430 1432 1433 1434 1436 1438 1440 1441 1442 1442 1443 1444 1444 1445 1446 1448 1450 1452 1454 1456 1458 1461 1464 1466 1470 1474 1478 1481 1485 1490 1495 1501 1506 1511 1515 1518 1522 1524
1420 1422 1425 1427 1429 1431 1433 1434 1434 1435 1437 1439 1440 1441 1442 1443 1444 1446 1447 1449 1451 1453 1456 1459 1461 1463 1466 1468 1472 1476 1480 1483 1486 1491 1495 1500 1504 1508 1512 1516 1519 1522 1526
1420 1423 1426 1428 1430 1433 1433 1433 1435 1435 1436 1438 1440 1442 1443 1443 1445 1447 1449 1451 1454 1456 1459 1463 1466 1469 1471 1474 1478 1481 1485 1488 1491 1495 1498 1502 1507 1511 1514 1518 1521 1523 1525
1420 1423 1426 1428 1431 1433 1434 1434 1435 1435 1436 1437 1439 1442 1443 1445 1446 1448 1451 1454 1456 1459 1463 1468 1471 1473 1476 1478 1480 1484 1488 1490 1493 1497 1501 1505 1509 1512 1514 1517 1520 1522 1524
1420 1422 1426 1428 1430 1433 1435 1437 1437 1437 1438 1439 1440 1442 1443 1445 1448 1450 1453 1456 1460 1462 1467 1471 1473 1476 1479 1481 1484 1487 1490 1492 1496 1500 1503 1506 1509 1512 1514 1516 1518 1520 1522
1420 1423 1426 1428 1430 1432 1435 1435 1438 1440 1441 1441 1442 1443 1445 1448 1450 1452 1454 1458 1461 1465 1467 1471 1474 1477 1480 1483 1486 1488 1491 1494 1497 1500 1503 1505 1508 1510 1512 1514 1515 1517 1519
1421 1423 1425 1428 1430 1432 1435 1436 1438 1440 1442 1444 1444 1446 1448 1450 1452 1454 1456 1460 1463 1466 1470 1472 1475 1478 1481 1483 1486 1488 1491 1494 1496 1499 1501 1503 1506 1508 1509 1511 1512 1514 1515
1420 1422 1425 1428 1431 1434 1435 1437 1439 1441 1443 1445 1448 1448 1449 1451 1453 1455 1458 1461 1465 1467 1469 1471 1473 1476 1480 1482 1485 1487 1490 1492 1494 1497 1499 1501 1503 1504 1506 1507 1509 1510 1510
1420 1422 1426 1429 1431 1433 1435 1437 1440 1442 1444 1446 1448 1449 1450 1454 1456 1456 1459 1463 1465 1468 1470 1472 1473 1475 1477 1479 1482 1485 1486 1489 1491 1493 1496 1497 1499 1500 1501 1503 1504 1504 1504
1419 1422 1425 1428 1431 1434 1436 1438 1440 1442 1444 1446 1449 1449 1452 1454 1458 1459 1460 1463 1465 1467 1469 1470 1472 1474 1476 1477 1479 1481 1482 1483 1485 1488 1490 1492 1493 1494 1495 1496 1497 1497 1497
1418 1422 1425 1428 1431 1433 1435 1438 1440 1442 1444 1446 1448 1449 1451 1454 1457 1459 1461 1463 1464 1466 1468 1469 1471 1473 1474 1475 1476 1478 1479 1480 1481 1483 1485 1487 1488 1489 1489 1490 1490 1490 1489
1418 1421 1425 1428 1430 1432 1435 1437 1439 1441 1443 1445 1448 1450 1452 1454 1457 1459 1460 1462 1464 1465 1466 1467 1469 1470 1472 1473 1474 1475 1475 1476 1478 1479 1480 1481 1481 1482 1482 1482 1481 1481 1481
1413 1415 1419 1422 1424 1427 1430 1433 1436 1440 1442 1444 1447 1450 1452 1454 1456 1458 1459 1460 1461 1463 1464 1465 1466 1467 1468 1468 1470 1470 1471 1471 1471 1473 1474 1474 1474 1474 1473 1473 1472 1472 1471
1417 1418 1419 1423 1426 1428 1430 1431 1432 1434 1436 1438 1439 1441 1442 1443 1445 1446 1448 1449 1453 1458 1461 1462 1463 1463 1462 1458 1456 1458 1459 1460 1460 1462 1463 1464 1464 1464 1464 1464 1464 1463 1462
Wind_Speed
19 21 22 22 22 21 21 20 19 18 17 14 12 11 11 10 10 11 10 10 11 9 8 9 10 9 10 11 11 9 8 11 12 10 12 13 13 13 15 15 14 16 16
21 21 22 22 21 21 19 18 16 13 13 12 12 11 10 9 9 9 10 9 11 11 11 10 10 11 12 13 14 11 9 9 12 14 15 16 16 14 15 17 16 16 18
21 21 21 20 19 18 16 15 13 13 12 13 12 10 7 7 8 9 11 12 12 12 13 12 11 11 13 12 11 10 11 9 12 11 20 17 17 14 18 19 18 20 19
20 19 18 17 16 15 14 14 13 13 14 12 9 7 7 6 5 5 7 7 9 8 11 12 11 12 13 12 11 10 10 11 12 15 21 20 19 16 19 24 25 22 31
18 16 16 15 14 15 15 14 13 13 12 10 8 5 4 3 2 2 4 6 8 8 9 10 10 11 12 11 10 10 14 18 16 20 24 22 22 25 26 30 31 35 34
18 17 16 14 14 14 14 14 14 14 12 11 7 4 2 2 1 2 3 5 7 8 9 10 14 11 13 12 12 11 18 15 18 23 25 27 27 28 28 33 34 45 34
17 15 13 13 13 14 13 14 15 12 12 11 7 5 3 1 1 1 2 3 7 10 11 11 11 12 12 13 14 14 16 18 15 23 27 27 28 29 30 34 39 39 36
15 13 11 12 13 13 14 16 13 11 12 9 6 4 2 3 1 2 4 4 5 8 10 10 10 11 12 14 16 15 15 13 12 19 22 24 28 30 30 35 44 36 36
13 11 11 12 13 14 16 15 11 12 9 8 5 3 3 3 3 4 7 6 6 7 9 11 12 13 12 14 15 18 20 20 17 16 17 21 26 29 34 42 38 39 38
12 12 12 13 14 15 16 13 10 11 9 7 4 1 2 3 4 5 7 8 8 10 11 10 10 9 10 13 15 19 22 22 20 19 20 22 27 35 38 36 34 38 36
12 13 14 13 13 13 12 12 10 10 10 8 5 3 3 3 4 4 6 6 8 10 9 10 13 12 13 15 17 18 21 21 19 19 23 26 30 38 31 24 27 26 22
14 15 14 14 12 10 9 10 11 11 10 9 7 5 3 3 4 3 5 8 7 10 15 16 16 13 13 14 16 20 20 20 21 22 24 29 30 26 28 23 20 18 15
16 15 13 11 10 8 7 9 10 11 10 9 8 7 5 5 6 5 9 9 11 17 19 18 16 16 16 13 17 20 20 21 22 23 25 26 23 24 23 24 19 16 15
16 13 12 10 9 6 5 6 7 8 8 8 7 8 7 7 7 8 12 11 16 21 23 18 19 19 19 23 28 22 18 21 25 25 22 21 22 20 18 16 14 15 8
15 13 9 9 8 6 7 7 4 5 8 7 8 7 6 8 10 9 14 16 21 24 25 20 21 22 26 25 19 20 19 22 20 20 20 20 18 17 16 16 15 15 12
16 13 10 8 7 6 7 8 6 6 9 10 13 10 8 7 10 10 13 14 19 25 21 18 19 20 18 15 12 16 17 18 19 18 18 19 19 18 17 16 15 16 15
15 13 11 9 7 7 8 8 8 9 10 9 8 8 7 11 11 11 15 15 17 21 15 16 17 17 16 13 13 13 15 14 17 17 18 18 17 16 17 15 15 15 16
14 14 11 10 8 7 8 8 7 8 7 9 8 9 11 10 9 13 16 17 18 15 16 16 15 16 15 13 14 15 15 15 17 17 17 17 16 16 16 16 17 17 17
14 13 11 9 8 8 7 8 8 9 10 8 10 11 12 12 12 12 14 16 16 14 13 13 13 13 13 13 14 15 15 16 17 17 17 16 16 16 16 17 17 18 19
13 13 12 10 9 9 8 8 9 8 9 9 8 9 13 14 13 14 14 13 10 10 11 13 13 14 14 14 14 15 16 16 17 18 17 17 17 17 18 18 19 20 21
13 10 12 10 9 9 9 8 7 8 8 8 9 7 8 11 10 12 13 10 10 10 10 11 11 12 13 15 17 17 19 19 19 19 19 19 19 20 20 20 21 22 23
11 11 11 11 10 9 9 8 8 7 7 8 8 8 9 12 7 8 10 10 10 11 11 12 12 13 14 15 16 18 19 20 21 21 22 23 23 24 23 24 25 26 26
8 10 10 11 10 10 9 8 8 8 8 7 8 6 10 10 8 7 7 8 9 9 10 11 12 13 13 14 15 16 17 18 19 21 23 23 24 24 25 26 27 27 28
11 9 8 8 8 8 8 7 7 8 7 7 8 6 5 7 7 7 7 7 8 9 10 11 11 12 13 14 15 17 18 18 18 19 22 23 24 26 28 28 29 29 30
16 17 16 17 17 16 15 14 12 10 10 8 6 5 5 4 4 4 5 6 7 8 9 10 11 12 14 16 17 18 19 22 24 22 21 22 25 26 28 29 30 31 33
15 14 17 17 15 13 12 12 13 13 12 14 15 16 17 16 16 16 14 12 7 2 3 5 6 8 10 16 22 22 26 30 31 31 30 28 28 30 30 31 32 34 35
Wind_Direction
125 127 127 128 130 132 135 138 145 153 161 164 167 167 172 177 186 200 207 215 223 223 214 217 214 194 184 197 198 211 193 183 179 158 178 172 176 178 181 180 173 174 174
126 126 127 130 133 134 136 143 149 152 150 154 155 158 165 180 197 215 224 226 230 234 207 208 205 192 189 194 197 200 195 185 166 168 180 181 177 182 180 175 171 169 170
129 130 131 132 135 138 143 148 148 147 147 148 150 155 175 205 221 238 241 244 238 227 198 203 202 197 195 197 200 191 187 184 166 170 167 175 170 180 174 176 176 167 168
130 131 132 136 141 144 145 146 145 145 145 152 156 169 191 211 234 246 234 221 216 207 191 201 199 197 192 193 192 192 187 173 167 166 164 163 165 164 177 171 158 166 160
132 135 137 140 144 145 147 146 147 150 151 155 156 173 180 162 208 240 198 186 210 195 194 193 195 192 192 190 192 195 186 184 181 165 169 168 167 165 167 166 161 162 153
131 130 132 139 145 150 152 153 150 151 152 153 144 134 118 112 199 213 186 180 180 199 195 179 197 194 196 196 205 195 194 177 175 174 175 175 171 174 169 168 165 162 145
136 132 134 140 148 151 153 157 156 158 158 151 130 121 104 52 329 66 166 181 204 203 202 204 194 199 204 211 201 186 184 175 190 186 178 177 171 172 173 171 165 162 158
139 139 143 147 151 150 149 154 159 160 158 154 126 113 63 23 50 94 139 155 157 165 172 179 181 194 196 186 179 172 164 166 180 186 186 180 175 172 174 175 165 164 162
150 146 143 149 152 153 154 160 159 158 157 153 127 90 42 51 88 93 130 153 163 158 164 171 175 171 169 158 157 166 163 156 160 174 181 177 176 175 174 171 167 165 161
149 146 148 148 144 146 157 164 168 166 166 158 134 85 38 82 96 97 127 161 163 153 152 157 164 180 172 159 172 166 155 159 164 164 171 175 181 175 174 176 168 163 161
145 150 148 149 151 156 163 172 167 169 175 163 159 134 107 113 106 104 131 156 164 163 171 163 152 154 158 163 170 170 165 157 162 164 167 172 174 171 169 170 166 164 166
144 146 144 144 146 160 172 169 178 183 176 172 169 135 136 134 119 96 127 161 163 157 139 134 132 137 153 154 159 152 152 152 155 160 163 167 165 166 157 155 161 163 186
139 138 140 144 146 159 175 176 174 182 182 183 178 155 153 147 131 115 128 136 140 144 132 124 125 139 133 132 144 144 144 150 152 155 154 155 156 155 163 163 160 179 181
147 136 141 138 143 153 162 163 170 173 176 176 165 148 153 158 147 136 136 133 141 139 130 129 126 129 129 127 126 120 131 146 144 145 148 150 157 162 165 174 175 169 152
157 150 139 144 129 153 142 146 121 150 168 169 154 146 159 166 157 154 152 146 148 144 140 128 135 135 134 127 124 137 140 140 149 152 152 156 161 167 171 175 179 185 180
160 153 148 139 130 141 140 128 127 129 148 160 150 150 167 166 157 151 156 152 153 149 141 143 146 148 148 155 145 147 153 158 156 157 157 162 168 172 179 183 187 194 196
163 155 157 145 137 149 160 140 119 124 131 140 150 161 152 151 148 148 151 150 159 152 154 154 158 161 162 163 160 159 162 165 160 167 169 173 180 184 190 195 198 203 207
160 158 151 150 148 143 166 154 133 129 123 136 136 145 143 148 151 153 154 157 159 166 178 172 170 169 170 171 168 171 173 177 172 179 184 188 193 197 202 203 208 211 214
164 164 162 155 158 145 148 162 147 131 128 136 140 145 147 146 142 149 152 168 167 173 179 185 185 187 188 188 184 184 186 190 189 190 194 197 200 202 209 212 216 220 223
170 170 167 166 168 163 149 152 156 148 140 142 138 160 158 155 159 164 162 170 181 189 196 197 199 199 200 197 203 200 198 203 203 204 207 210 212 214 218 223 225 229 236
178 187 173 169 175 178 173 160 159 165 159 152 156 164 149 155 169 178 178 183 185 189 189 191 202 206 208 210 206 210 212 211 216 218 220 224 226 228 230 232 235 238 239
177 184 184 187 185 183 183 182 177 170 174 172 168 187 165 151 173 182 190 197 202 202 208 204 202 207 207 211 214 219 222 223 221 224 227 228 232 234 235 238 241 244 246
165 178 185 189 189 185 186 185 189 191 186 180 176 201 197 193 187 197 206 211 211 212 215 220 221 222 224 223 222 223 227 231 233 232 234 237 238 240 242 245 246 248 249
109 123 146 165 178 180 180 178 181 186 183 196 195 193 195 208 217 221 222 228 234 236 232 233 235 235 237 240 241 240 241 240 239 240 239 240 244 246 246 247 250 252 253
153 155 152 149 152 147 140 141 138 128 137 142 152 169 189 206 231 245 252 253 249 247 249 250 250 252 255 252 250 251 253 257 254 245 246 253 252 250 250 252 255 255 254
122 125 126 132 139 139 153 153 155 157 160 161 161 160 160 167 176 179 180 178 159 180 266 267 265 270 256 243 240 241 242 242 245 251 254 253 252 254 258 259 259 259 260